NOAA NWS Hourly Roundups by Site

Regional Weather Roundup for Des Moines, IA

To Select Another Site Choose from List

Select Site:  

000
ASUS43 KDMX 280306
RWRIA

WEATHER ROUNDUP FOR IOWA
NATIONAL WEATHER SERVICE DES MOINES IA
1000 PM CDT FRI MAY 27 2022

NOTE: "FAIR" INDICATES FEW OR NO CLOUDS BELOW 12,000 FEET WITH NO
SIGNIFICANT WEATHER AND/OR OBSTRUCTIONS TO VISIBILITY.

* - THESE STATIONS ARE NOT NWS STATIONS...THUS NOT UNDER NWS
QUALITY CONTROL.  THEY ALSO DO NOT REPORT WEATHER SUCH
AS PRECIPITATION OR FOG.

IAZ001>003-012>014-020>022-031>034-043>046-280400-
   NORTHWEST IOWA

CITY           SKY/WX    TMP DP  RH WIND       PRES   REMARKS
CARROLL *      PTCLDY    64  57  77 S9        29.86R
CHEROKEE *     CLEAR     66  53  62 S8        29.83R
DENISON *      CLEAR     66  55  68 SE12      29.87R
LE MARS *      CLEAR     72  55  56 SE12      29.78R
MAURICE *      FAIR      70  54  56 SE15      29.78
SHELDON *      PTCLDY    70  50  49 SE16      29.79R
SIOUX CITY     CLEAR     71  55  56 SE12      29.78S
SPENCER        PTCLDY    69  53  56 SE13      29.83R
STORM LAKE *   CLEAR     66  55  68 S13       29.85R
$$

IAZ055>058-069>071-079>083-090>094-280400-
   SOUTHWEST IOWA

CITY           SKY/WX    TMP DP  RH WIND       PRES   REMARKS
ATLANTIC *     CLEAR     68  59  73 S8        29.87R
AUDUBON *      MOCLDY    61  54  77 CALM      29.89R
CLARINDA *     CLEAR     68  57  68 SE7       29.90R
COUNCIL BLFS * CLEAR     66  52  59 SE9       29.85
CRESTON *      CLEAR     64  61  88 S7        29.91R
HARLAN  *      CLEAR     68  57  68 S7        29.87R
LAMONI         CLEAR     66  51  58 S6        29.92R
RED OAK *      CLEAR     68  57  68 SE8       29.88R
SHENANDOAH *   CLEAR     66  57  72 SE8       29.86R
$$

IAZ047>049-059>061-072>074-084-280400-
   CENTRAL IOWA

CITY           SKY/WX    TMP DP  RH WIND       PRES   REMARKS
AMES           CLEAR     61  54  77 S5        29.89R
ANKENY *       CLEAR     59  54  82 CALM      29.90S
BOONE *        CLEAR     64  52  63 S6        29.91S
CHARITON *       N/A     63  54  72 CALM      29.91
DES MOINES     PTCLDY    67  49  52 SE5       29.89R
GRINNELL*      CLEAR     67  51  57 CALM      29.92R
KNOXVILLE *    CLEAR     64  50  59 SW6       29.90R
MARSHALLTOWN   CLEAR     68  50  52 S6        29.89R
NEWTON *       CLEAR     64  52  63 S6        29.90R
PELLA *        CLEAR     61  54  77 CALM      29.91R
PERRY *        FAIR      64  55  73 SE9       29.89R
$$

IAZ004>006-015-016-023>025-035-036-280400-
   NORTH CENTRAL IOWA

CITY           SKY/WX    TMP DP  RH WIND       PRES   REMARKS
ALGONA *       CLEAR     68  54  60 S13       29.85S
CLARION *      CLEAR     64  54  68 SE9       29.89R
ESTHERVILLE    PTCLDY    68  52  56 S15       29.84R
FORT DODGE *   PTCLDY    67  51  56 SE6       29.88R
MASON CITY     CLEAR     60  53  77 S8        29.89R
FOREST CITY *  FAIR      61  54  77 S7        29.88R
WEBSTER CITY * PTCLDY    61  55  82 SE9       29.87S
IOWA FALLS *   FAIR      65  55  72 S5        29.91R
$$

IAZ007>011-017>019-026>030-037>042-050>054-066-280400-
   NORTHEAST IOWA

CITY           SKY/WX    TMP DP  RH WIND       PRES   REMARKS
CEDAR RAPIDS   CLEAR     58  51  78 SE3       29.89R
CHARLES CITY * CLEAR     63  52  67 SE3       29.89R
CLINTON *      CLEAR     59  54  83 S7        29.92R
DECORAH *      MOCLDY    63  52  67 SE5       29.87F
DUBUQUE        CLEAR     57  51  80 CALM      29.91R
MONTICELLO *     N/A    N/A N/A N/A MISG        N/A
OELWEIN *      CLEAR     63  50  63 CALM      29.90R
WATERLOO       CLEAR     61  52  72 CALM      29.88R
$$

IAZ064-065-067-068-078-280400-
   EAST CENTRAL IOWA

CITY           SKY/WX    TMP DP  RH WIND       PRES   REMARKS
DAVENPORT      CLEAR     57  53  86 SE6       29.93R
IOWA CITY      CLEAR     62  51  67 CALM      29.91R
MT. PLEASANT * CLEAR     61  54  77 SE7       29.92R
MUSCATINE *    CLEAR     59  57  94 CALM      29.92R
QUAD CITIES    CLEAR     58  52  80 CALM      29.91R
$$

IAZ062-063-075>077-085>089-095>099-280400-
   SOUTHEAST IOWA

CITY           SKY/WX    TMP DP  RH WIND       PRES   REMARKS
BURLINGTON     CLEAR     61  55  81 SE5       29.92R
FAIRFIELD *    CLEAR     61  54  77 CALM      29.91R
KEOKUK *       MOCLDY    59  59 100 SE5       29.92R
OSKALOOSA *    FAIR      67  50  54 SE3       29.91
CENTERVILLE *  FAIR      59  57  94 CALM      29.93R
OTTUMWA        CLEAR     60  57  89 S3        29.90R
WASHINGTON *   CLEAR     61  54  77 S6        29.90R
$$

ABBREVIATIONS USED IN REMARKS
   TC - TEMPERATURES IN CELSIUS
  WCI - WIND CHILL INDEX
   HX - HEAT INDEX
  VSB - VISIBILITY
$$



 

View Past Reports for Des Moines, IA.

Products Courtesy of NOAA-NWS
NWS Information Parsing Script by Ken True at Saratoga Weather - Script by SE Lincoln Weather.